Home   Weather   Selkirk   Past weeks

Flag for Canada Past Weather in Selkirk, Manitoba, Canada — Yesterday and Last 2 Weeks

Now
40 °F

Chilly.


Feels Like: 33 °F
Forecast: N/A
Wind: 10 mph from Northeast

Location: Winnipeg The Forks Man

Current Time: Apr 25, 2017 at 3:49:57 pm

Latest Report: Apr 25, 2017 at 3:00 pm


Visibility: N/A

Pressure: 29.96 "Hg

Humidity: 55%

Dew Point: 25 °F

Location of SelkirkLocation

Past Weather in Selkirk — Graph

°F

Selkirk Temperature Yesterday

Maximum temperature yesterday: 34 °F (at 12:00 pm)
Minimum temperature yesterday: 31 °F (at 2:00 am)
Average temperature yesterday: 32 °F

High & Low Weather Summary for the Past Weeks

 TemperatureHumidityPressure
High70 °F (Apr 14, 6:00 pm)100% (Apr 22, 9:00 am)30.35 "Hg (Apr 22, 9:00 am)
Low24 °F (Apr 17, 7:00 am)20% (Apr 11, 1:00 pm)29.59 "Hg (Apr 14, 9:00 pm)
Average42 °F62%30.09 "Hg
* Reported Apr 10 2:00 pm — Apr 25 2:00 pm, Selkirk, Weather by CustomWeather, © 2017

Note: Actual official high and low records may vary slightly from our data, if they occured in-between our weather recording intervals... More about our weather records

Advertising

Selkirk Weather History for the Previous 24 Hours

Scroll right to see more
 ConditionsComfort  
Time TempWeatherWind HumidityBarometerVisibility
2:00 pm
Tue, Apr 25
38 °FChilly.8 mph59%29.98 "HgN/A
1:00 pm36 °FChilly.9 mph64%29.98 "HgN/A
12:00 pm34 °FChilly.10 mph65%29.97 "HgN/A
11:00 am31 °FChilly.10 mph72%29.97 "HgN/A
10:00 am32 °FChilly.9 mph68%29.96 "HgN/A
9:00 am30 °FChilly.10 mph70%29.96 "HgN/A
8:00 am30 °FChilly.10 mph71%29.94 "HgN/A
7:00 am30 °FChilly.9 mph73%29.92 "HgN/A
6:00 am30 °FChilly.9 mph76%29.90 "HgN/A
5:00 am30 °FChilly.8 mph78%29.88 "HgN/A
4:00 am31 °FChilly.8 mph82%29.88 "HgN/A
3:00 am31 °FChilly.8 mph79%29.87 "HgN/A
2:00 am30 °FChilly.8 mph84%29.86 "HgN/A
1:00 am30 °FChilly.8 mph85%29.87 "HgN/A
12:00 am30 °FChilly.8 mph87%29.86 "HgN/A
11:00 pm
Mon, Apr 24
31 °FChilly.8 mph89%29.85 "HgN/A
10:00 pm32 °FChilly.8 mph81%29.85 "HgN/A
9:00 pm32 °FChilly.8 mph82%29.84 "HgN/A
8:00 pm32 °FChilly.8 mph86%29.82 "HgN/A
7:00 pm32 °FChilly.9 mph89%29.83 "HgN/A
6:00 pm31 °FChilly.9 mph100%29.82 "HgN/A
5:00 pm32 °FChilly.9 mph100%29.81 "HgN/A
4:00 pm32 °FChilly.8 mph96%29.82 "HgN/A
3:00 pm31 °FChilly.9 mph100%29.82 "HgN/A
Weather by CustomWeather, © 2017

See weather overviewHow to use our weather pages